Terminal Aerodrome Forecast
Issued by NWS

Home | Current Version | Previous Version | Text Only | Print | Product List | Glossary On
Versions: 1 2 3 4 5 6 7 8 9 10 11 12
000
FTUS42 KMLB 281500 AAC
TAFTIX
TAF AMD
KTIX 281505Z 2815/2912 18005KT P6SM SCT008
     FM281700 21006KT P6SM BKN035
     FM290000 19003KT P6SM BKN040
     FM290700 00000KT 1SM BR OVC004
      TEMPO 2908/2912 1SM BR VV002=

USA.gov is the U.S. government's official web portal to all federal, state and local government web resources and services.